This is the latest recevied weather packets stored in our database for station/object KQ4OSL. If no packets are shown the sender has not sent any weather packets the latest 10 day(s).
| Time | Temp. | Humidity | Pressure | Rain* | Wind** | Luminosity | Snow |
|---|---|---|---|---|---|---|---|
| 1777084605 | 18.33° C | 80% | 1013 hPa | 0 mm | - | 0 W/m² | - |
| 1777084300 | 18.33° C | 79% | 1012.7 hPa | 0 mm | - | 0 W/m² | - |
| 1777083995 | 18.89° C | 79% | 1013 hPa | 0 mm | - | 0 W/m² | - |
| 1777083692 | 18.89° C | 77% | 1012.9 hPa | 0 mm | - | 0 W/m² | - |
| 1777083389 | 19.44° C | 75% | 1012.9 hPa | 0 mm | - | 0 W/m² | - |
| 1777083086 | 20° C | 73% | 1013 hPa | 0 mm | - | 0 W/m² | - |
| 1777082781 | 20° C | 73% | 1013.2 hPa | 0 mm | - | 0 W/m² | - |
| 1777082476 | 20.56° C | 72% | 1012.9 hPa | 0 mm | - | 0 W/m² | - |
| 1777082172 | 20.56° C | 71% | 1012.8 hPa | 0 mm | - | 0 W/m² | - |
| 1777081867 | 20.56° C | 71% | 1012.9 hPa | 0 mm | - | 0 W/m² | - |
| 1777081566 | 20.56° C | 71% | 1012.9 hPa | 0 mm | - | 0 W/m² | - |
| 1777081264 | 20.56° C | 70% | 1013 hPa | 0 mm | - | 0 W/m² | - |
| 1777080963 | 20.56° C | 70% | 1012.9 hPa | 0 mm | - | 0 W/m² | - |
| 1777080657 | 19.44° C | 71% | 1013 hPa | 0 mm | - | 0 W/m² | - |
| 1777080353 | 19.44° C | 75% | 1012.8 hPa | 0 mm | - | 0 W/m² | - |
| 1777080047 | 19.44° C | 74% | 1012.8 hPa | 0 mm | - | 0 W/m² | - |
| 1777079746 | 18.89° C | 76% | 1012.7 hPa | 0 mm | - | 0 W/m² | - |
| 1777079443 | 19.44° C | 75% | 1012.7 hPa | 0 mm | - | 0 W/m² | - |
| 1777079138 | 20° C | 74% | 1012.5 hPa | 0 mm | - | 0 W/m² | - |
| 1777078835 | 20° C | 72% | 1012.7 hPa | 0 mm | - | 0 W/m² | - |
| 1777078531 | 20° C | 75% | 1012.6 hPa | 0 mm | - | 0 W/m² | - |
| 1777078227 | 20° C | 73% | 1012.7 hPa | 0 mm | - | 0 W/m² | - |
| 1777077927 | 20.56° C | 73% | 1012.5 hPa | 0 mm | - | 0 W/m² | - |
| 1777077624 | 20.56° C | 72% | 1012.7 hPa | 0 mm | - | 0 W/m² | - |
| 1777077320 | 21.11° C | 69% | 1012.7 hPa | 0 mm | - | 0 W/m² | - |
* Rain latest hour (hover to see other rain measurements)
** Current wind speed in m/s (hover to see current wind gust speed)